Regional Weather Roundup
Issued by NWS

Home | Current Version | Previous Version | Text Only | Print | Product List | Glossary On
Versions: 1 2 3 4 5 6 7 8 9 10 11 12 13 14 15 16 17 18 19 20 21 22 23 24 25 26 27 28 29 30 31 32 33 34 35 36 37 38 39 40 41 42 43 44 45 46 47 48 49 50
000
ASUS45 KSLC 060010
RWRUT

UTAH REGIONAL WEATHER ROUNDUP
NATIONAL WEATHER SERVICE SALT LAKE CITY UT
500 PM MST THU MAR 05 2015

UTZ001>011-023>025-060100-

NORTHERN UTAH

CITY           SKY/WX    TMP DP  RH WIND       PRES   REMARKS
BRIGHAM CITY   SUNNY     46  18  32 CALM      30.42S
HILL AFB       SUNNY     44  15  30 S3        30.40F
LOGAN          SUNNY     45  18  34 SW6       30.39F
OGDEN          SUNNY     47  17  30 VRB5      30.40F
PROVO AIRPORT  MOSUNNY   43  19  39 VRB3      30.42S
SALT LAKE CITY MOSUNNY   48  20  32 N7        30.40F
VERNAL         SUNNY     37  17  44 CALM      30.36S
WENDOVER       SUNNY     48  25  40 CALM      30.40S
HEBER CITY     SUNNY     43  18  36 W6        30.39R
WEST JORDAN    SUNNY     46  23  39 N3        30.41S

$$

UTZ012>022-026-027-060100-

SOUTHERN/CENTRAL UTAH

CITY           SKY/WX    TMP DP  RH WIND       PRES   REMARKS
BLANDING       SUNNY     42  26  52 CALM      30.43S
BRYCE CANYON   SUNNY     32   9  38 NE5       30.38S WCI  27
CEDAR CITY     SUNNY     43   8  23 CALM      30.36F
DELTA          SUNNY     46  17  30 CALM      30.40S
HANKSVILLE     SUNNY     50  18  27 CALM      30.38R
MILFORD        SUNNY     49  18  29 N9        30.37S
MOAB/CYNLANDS  SUNNY     47  11  23 W5        30.35S
PRICE          SUNNY     42  18  37 S3        30.34F
ST GEORGE      CLEAR     57  25  28 W3        30.35F
KANAB          SUNNY     52  21  30 S3        30.37F

$$

REGIONAL REPORTS     COLORADO/ARIZONA

CITY           SKY/WX    TMP DP  RH WIND       PRES   REMARKS
CRAIG, CO      PTSUNNY   35  16  45 E7        30.34S WCI  29
GRAND JUNCTION SUNNY     44  15  31 VRB6      30.36F
RIFLE          SUNNY     43  12  28 W7        30.36R
MONTROSE       SUNNY     44  15  31 N5        30.37R
CORTEZ         SUNNY     44  22  41 W9        30.35R
PAGE, AZ       SUNNY     51  21  30 NE3       30.35S
GRAND CANYON   SUNNY     48  -4  11 N5        30.36S
KINGMAN        SUNNY     61  24  24 N10       30.28F
FLAGSTAFF      SUNNY     44  15  31 E9        30.35S

$$

REGIONAL REPORTS    NEVADA/IDAHO/WYOMING

CITY           SKY/WX    TMP DP  RH WIND       PRES   REMARKS
LAS VEGAS, NV  SUNNY     65  20  17 CALM      30.26F
ELY            SUNNY     51  14  22 N8        30.36S
ELKO           SUNNY     53  10  18 W8        30.35S
POCATELLO, ID  SUNNY     48  15  26 SW12      30.34F
BURLEY         SUNNY     53  11  18 W9        30.32F
EVANSTON, WY   MOSUNNY   34  17  50 SW14      30.36R WCI  25
ROCK SPRINGS   MOSUNNY   32  20  61 SW17      30.28S WCI  21
KEMMERER       MOSUNNY   36  12  38 W18G24    30.32S WCI  25

$$



USA.gov is the U.S. government's official web portal to all federal, state and local government web resources and services.